Location: Trani
(41.2830°N, 16.4170°E)
Time: 16:28:01
(UTC+02:00)

ISS - Pass Details

Date: 18 May 2021
Orbit: 417 x 422 km, 51.6° (Epoch: 18 June)

Event Time Altitude Azimuth Distance (km) Brightness Sun altitude
Rises 01:18:24 0° 309° (NW) 2,371 0.5 -28.8°
Reaches altitude 10° 01:20:53 10° 327° (NNW) 1,507 -0.4 -28.8°
Enters shadow 01:22:22 17° 351° (N) 1,139 -0.9 -28.7°
